Location: Unspecified
(51.6250°N, 0.8230°E)
Time: 05:24:36
(UTC+00:00)

ISS - Pass Details

Date: 30 January 2021
Orbit: 417 x 422 km, 51.6° (Epoch: 02 March)

Event Time Altitude Azimuth Distance (km) Brightness Sun altitude
Rises 17:48:02 0° 274° (W) 2,374 1.6 -10.3°
Reaches altitude 10° 17:50:08 10° 275° (W) 1,509 0.3 -10.6°
Maximum altitude 17:53:31 90° 216° (SW) 428 -3.8 -11.1°
Enters shadow 17:56:01 17° 96° (E) 1,148 -2.1 -11.5°
